Weather in Oktyabr'sky

Russia / Volgograd Oblast     47°58′07″N   43°39′12″E
temp.,
°C
wind,
m/s
gust,
m/s
humid.,
%
clouds,
%
prec.,
mm/h
press.,
hPa
HPBL,
m
4 march, thu
thu400:00−3wnw48880 0.0 1020242
03:00−3w59890 0.0 1022283
06:00−3wsw610820 0.0 1022303
09:000wsw812655 0.0 1021610
12:00+4wsw1013495 0.0 10201025
15:00+5wsw1014502 0.0 10181155
18:00+2wsw615670 0.0 1016408
21:00+1sw716760 0.0 1016504
5 march, fri
fri500:00+1wsw918820 0.0 1015663
03:00+1wsw917881 0.0 1015656
06:00+1wsw9188967 0.0 1014719
09:00+3wsw10168382 0.0 1014887
12:00+4wsw91581100 0.0 1014853
15:00+5wsw81481100 0.0 1014783
18:00+4wsw71487100 0.1 1015643
21:00+4wsw51288100 0.4 1016435
6 march, sat
sat600:00+3sw4890100 0.0 1015172
03:00+3sw61284100 0.0 1015330
06:00+3sw6147596 0.0 1013428
09:00+4sw8157398 0.0 1012616
12:00+7wsw101576100 0.0 10101063
15:00+6wsw91589100 1.0 1009863
18:00+3wnw71091100 0.7 1010639
21:00−1nnw7984100 0.8 1013598
7 march, sun
sun700:00−2nnw5781100 0.0 1015661
03:00−2nw358297 0.0 1017532
06:00−3wnw7990100 0.9 1019529
09:00−3nw71075100 2.0 1021812
12:00−1wnw686296 0.0 10221134
15:000w685289 0.1 10211444
18:00−1wsw5115825 0.0 1020423
21:00−2sw6136137 0.0 1020642
8 march, mon
mon800:00−2wsw8145616 0.0 1019651
03:00−2wsw816658 0.0 1017673
06:00−2wsw916690 0.0 1016673
09:00+1wsw11156111 0.0 10151082
12:00+4wsw12165434 0.0 10141508
15:00+5wsw12165662 0.0 10131725
18:00+2wsw71469100 0.0 1013480
21:00+1wsw5138198 0.0 1015487